Weather History for Yakutat, AK

Change the Weather History Date:

Tuesday, March 5, 2013

  Actual Average Record
Temperature  
Mean Temperature 27 °F 31 °F  
Max Temperature 39 °F 38 °F 45 °F (1957)
Min Temperature 15 °F 24 °F -10 °F (1966)
Degree Days  
Heating Degree Days 38 34  
Month to date heating degree days 166 170  
Since 1 July heating degree days 6411 6299  
Cooling Degree Days 0    
Month to date cooling degree days 0  
Year to date cooling degree days 0  
Moisture  
Dew Point 22 °F    
Average Humidity 0    
Maximum Humidity 0    
Minimum Humidity 0    
Precipitation  
Precipitation 0.00 in 0.39 in 2.14 in (1979)
Month to date precipitation 0.05 1.94  
Year to date precipitation 26.70 26.46  
Snow  
Snow 0.00 in 0.90 in 9.90 in (1953)
Month to date snowfall 0.1 4.5  
Since 1 July snowfall 115.6 106.7  
Snow Depth 15.00 in    
Sea Level Pressure  
Sea Level Pressure 30.11 in    
Wind  
Wind Speed 1 mph (SW)    
Max Wind Speed 8 mph    
Max Gust Speed 9 mph    
Visibility 10 miles    
Events      
T = Trace of Precipitation, MM = Missing Value Source: NWS Daily Summary

Daily Weather History Graph

Daily Weather History Graph

Search for Another Location

Airport:

Trip Planner

Search our weather history database for the weather conditions in past years. The results will help you decide how hot, cold, wet, or windy it might be!

Date:

Astronomy

Mar. 05, 2013 Rise Set
Actual Time 7:03 AM AKST 5:58 PM AKST
Civil Twilight 6:22 AM AKST 6:39 PM AKST
Nautical Twilight 5:34 AM AKST 7:26 PM AKST
Astronomical Twilight 4:46 AM AKST 8:15 PM AKST
Moon 3:33 AM AKST (3/5) 10:36 AM AKST (3/5)
Length of Visible Light 12h 16m
Length of Day
10h 54m
Last Quarter, 39% of the Moon is Illuminated
Mar 5
Last Quarter
Mar 11
New
Mar 19
First Quarter
Mar 27
Full
Apr 2
Last Quarter

Hourly Weather History & Observations

Time (AKST) Temp. Windchill Dew Point Humidity Pressure Visibility Wind Dir Wind Speed Gust Speed Precip Events Conditions
12:53 AM 19.9 °F - 18.0 °F 92% 30.28 in 10.0 mi Calm Calm - N/A   Clear
1:53 AM 19.0 °F - 16.0 °F 88% 30.27 in 10.0 mi Calm Calm - N/A   Clear
2:53 AM 18.0 °F - 16.0 °F 92% 30.25 in 10.0 mi Calm Calm - N/A   Clear
3:53 AM 17.1 °F - 14.0 °F 88% 30.22 in 10.0 mi Calm Calm - N/A   Clear
4:53 AM 17.1 °F - 14.0 °F 88% 30.22 in 10.0 mi Calm Calm - N/A   Clear
5:53 AM 16.0 °F - 12.9 °F 88% 30.21 in 10.0 mi Calm Calm - N/A   Clear
6:53 AM 16.0 °F - 12.9 °F 88% 30.20 in 10.0 mi Calm Calm - N/A   Clear
7:53 AM 16.0 °F - 14.0 °F 92% 30.19 in 10.0 mi Calm Calm - N/A   Scattered Clouds
8:53 AM 19.0 °F - 18.0 °F 96% 30.17 in 10.0 mi Calm Calm - N/A   Scattered Clouds
9:53 AM 25.0 °F - 21.0 °F 85% 30.15 in 10.0 mi Calm Calm - N/A   Clear
10:53 AM 30.9 °F - 24.1 °F 76% 30.13 in 10.0 mi Calm Calm - N/A   Clear
11:53 AM 34.0 °F - 23.0 °F 64% 30.12 in 10.0 mi Calm Calm - N/A   Clear
12:53 PM 37.9 °F 34.4 °F 27.0 °F 65% 30.10 in 10.0 mi SW 4.6 mph - N/A   Clear
1:53 PM 37.0 °F 33.3 °F 28.0 °F 70% 30.08 in 10.0 mi SW 4.6 mph - N/A   Clear
2:53 PM 37.0 °F 33.3 °F 28.9 °F 73% 30.06 in 10.0 mi WSW 4.6 mph - N/A   Partly Cloudy
3:53 PM 36.0 °F 32.1 °F 28.9 °F 76% 30.05 in 10.0 mi SW 4.6 mph - N/A   Clear
4:53 PM 36.0 °F 33.3 °F 28.9 °F 76% 30.04 in 10.0 mi SW 3.5 mph - N/A   Clear
5:53 PM 32.0 °F - 27.0 °F 82% 30.03 in 10.0 mi Calm Calm - N/A   Clear
6:53 PM 28.0 °F - 26.1 °F 92% 30.02 in 10.0 mi Calm Calm - N/A   Clear
7:18 PM 28.4 °F - 26.6 °F 93% 30.02 in 10.0 mi Calm Calm - N/A   Mostly Cloudy
7:53 PM 28.9 °F - 26.1 °F 89% 30.01 in 10.0 mi Calm Calm - N/A   Mostly Cloudy
8:18 PM 28.4 °F 23.3 °F 24.8 °F 86% 30.01 in 10.0 mi NE 4.6 mph - N/A   Scattered Clouds
8:53 PM 28.0 °F - 21.9 °F 78% 30.01 in 10.0 mi Calm Calm - N/A   Clear
9:53 PM 25.0 °F - 23.0 °F 92% 30.00 in 10.0 mi Calm Calm - N/A   Clear
10:53 PM 24.1 °F - 21.9 °F 91% 29.99 in 10.0 mi Calm Calm - N/A   Clear
11:53 PM 23.0 °F - 21.0 °F 92% 29.99 in 10.0 mi Calm Calm - N/A   Clear